Flag for Maldives Weather past 2 weeks in Male, Maldives

Now
84 °F

Thunderstorms. Passing clouds.


Feels Like: 94 °F
Forecast: 83 / 89 °F
Wind: 16 mph from Southwest

Location: Male Airport

Current Time: May 23, 2015 at 4:05:00 AM

Latest Report: May 23, 2015 at 2:00 AM


Visibility: N/A

Pressure: 29.83 "Hg

Humidity: 79%

Dew point: 77 °F

Location of MaleLocation

Historic Weather in Male — Graph

°F

Male temperature yesterday

Maximum temperature yesterday: 90 °F (at 3:00 PM)
Minimum temperature yesterday: 84 °F (at 3:00 AM)
Average temperature yesterday: 86 °F

Past Weeks' High & Low Weather Summary

 TemperatureHumidityPressure
High90 °F (May 8, 10:00 AM)94% (May 10, 5:00 AM)29.92 "Hg (May 10, 5:00 AM)
Low79 °F (May 10, 6:00 AM)59% (May 21, 8:00 AM)29.71 "Hg (May 17, 4:00 PM)
Average86 °F77%29.81 "Hg
* Reported May 8 2:00 AM — May 23 2:00 AM, Male, Weather by CustomWeather, © 2015

Note: Actual official high and low records may vary slightly from our data, if they occured in-between our weather recording intervals... More about our weather records

Advertising

Male weather history for previous 24 hours

 ConditionsComfort  
Time TempWeatherWind HumidityBarometerVisibility
2:00 AM
Sat, May 23
84 °FThunderstorms. Passing clouds.16 mph79%29.83 "HgN/A
12:00 AM84 °FPartly cloudy.16 mph79%29.89 "HgN/A
8:57 PM
Fri, May 22
84 °FPassing clouds.15 mph84%29.89 "HgN/A
8:00 PM84 °FThunderstorms. Passing clouds.18 mph79%29.89 "HgN/A
6:00 PM86 °FPartly sunny.9 mph75%29.83 "HgN/A
5:00 PM86 °FPartly sunny.14 mph79%29.83 "HgN/A
4:00 PM88 °FPartly sunny.10 mph70%29.83 "HgN/A
3:00 PM90 °FPartly sunny.12 mph67%29.83 "HgN/A
2:00 PM88 °FBroken clouds.9 mph75%29.83 "HgN/A
1:00 PM88 °FBroken clouds.9 mph75%29.86 "HgN/A
12:00 PM88 °FPartly sunny.8 mph75%29.89 "HgN/A
11:00 AM88 °FBroken clouds.8 mph75%29.89 "HgN/A
10:00 AM88 °FPartly sunny.8 mph70%29.89 "HgN/A
9:00 AM88 °FPartly sunny.7 mph75%29.89 "HgN/A
8:00 AM86 °FBroken clouds.9 mph79%29.89 "HgN/A
7:00 AM86 °FPartly sunny.8 mph75%29.86 "HgN/A
6:00 AM84 °FPartly sunny.7 mph79%29.86 "HgN/A
5:00 AM84 °FPassing clouds.8 mph74%29.86 "HgN/A
4:00 AM84 °FPassing clouds.8 mph79%29.83 "HgN/A
Weather by CustomWeather, © 2015

See weather overviewHow to use our weather pages